CW6532 Weather Reports


Display with metric or nautical units.
time (UTC)temp
F
wind
direction
speed
MPH
gust
MPH
rain 1hr
in
rain 24hr
in
rain mn
in
humidity
%
barometer
mb
20260902122325 77 148 0.0 2.0 0.00 0.00 0.00 68 1026.1
20260902121343 77 148 1.0 5.0 0.00 0.00 0.00 66 1026.1
20260902120332 78 148 2.0 8.0 0.00 0.00 0.00 65 1026.1
20260902115325 77 168 5.0 6.0 0.00 0.00 0.00 66 1026.1
20260902114401 77 157 5.0 7.0 0.00 0.00 0.00 66 1026.1
20260902113336 77 185 6.0 9.0 0.00 0.00 0.00 65 1026.1
20260902112352 78 167 6.0 10.0 0.00 0.00 0.00 63 1026.1
20260902111326 77 185 6.0 8.0 0.00 0.00 0.00 66 1026.0
20260902110357 76 197 5.0 6.0 0.00 0.00 0.00 67 1026.0
20260902105349 76 173 5.0 9.0 0.00 0.00 0.00 67 1026.1
20260902104341 78 158 4.0 6.0 0.00 0.00 0.00 65 1026.1
20260902103336 78 158 4.0 6.0 0.00 0.00 0.00 64 1026.2
20260902102325 77 149 3.0 6.0 0.00 0.00 0.00 65 1026.3
20260902101345 77 149 3.0 7.0 0.00 0.00 0.00 66 1026.3
20260902100331 76 169 4.0 6.0 0.00 0.00 0.00 67 1026.3
20260902095346 77 156 5.0 6.0 0.00 0.00 0.00 66 1026.2
20260902094343 77 167 4.0 6.0 0.00 0.00 0.00 64 1026.2
20260902093331 76 157 5.0 8.0 0.00 0.00 0.00 68 1026.1
20260902092326 76 145 7.0 9.0 0.00 0.00 0.00 69 1026.1
20260902091344 76 177 4.0 6.0 0.00 0.00 0.00 68 1026.1
20260902090334 76 229 5.0 6.0 0.00 0.00 0.00 68 1026.1
20260902085325 78 250 4.0 8.0 0.00 0.00 0.00 63 1026.1
20260902084334 79 133 1.0 4.0 0.00 0.00 0.00 59 1025.8
20260902083351 78 134 2.0 4.0 0.00 0.00 0.00 61 1025.8
20260902082343 77 134 4.0 5.0 0.00 0.00 0.00 64 1025.8
20260902081336 78 198 2.0 5.0 0.00 0.00 0.00 62 1025.8
20260902080410 78 203 5.0 7.0 0.00 0.00 0.00 62 1025.8
20260902075339 79 204 5.0 7.0 0.00 0.00 0.00 61 1025.8
20260902074332 79 205 5.0 7.0 0.00 0.00 0.00 60 1025.9
20260902073351 79 194 5.0 7.0 0.00 0.00 0.00 59 1025.8
20260902072347 80 194 6.0 8.0 0.00 0.00 0.00 57 1025.8
20260902071342 80 195 6.0 8.0 0.00 0.00 0.00 56 1025.8
20260902070329 80 184 5.0 8.0 0.00 0.00 0.00 56 1025.8
20260902065335 80 196 6.0 9.0 0.00 0.00 0.00 54 1025.8
20260902064327 79 174 6.0 9.0 0.00 0.00 0.00 57 1025.7
20260902063344 79 192 6.0 9.0 0.00 0.00 0.00 61 1025.7
20260902062334 81 196 5.0 7.0 0.00 0.00 0.00 54 1025.7
20260902061331 81 174 5.0 7.0 0.00 0.00 0.00 53 1025.8
20260902060340 82 186 5.0 6.0 0.00 0.00 0.00 53 1025.7
20260902055356 82 172 5.0 6.0 0.00 0.00 0.00 53 1025.7
20260902054330 82 171 5.0 6.0 0.00 0.00 0.00 52 1025.8
20260902053350 82 171 4.0 5.0 0.00 0.00 0.00 52 1025.8
20260902052341 82 169 4.0 6.0 0.00 0.00 0.00 51 1025.9
20260902051334 83 230 3.0 4.0 0.00 0.00 0.00 50 1026.0
20260902050329 83 230 2.0 4.0 0.00 0.00 0.00 50 1025.9
20260902045400 83 230 3.0 4.0 0.00 0.00 0.00 49 1026.0
20260902044333 83 262 3.0 4.0 0.00 0.00 0.00 49 1026.1
20260902043350 84 262 2.0 3.0 0.00 0.00 0.00 48 1025.9
20260902042343 84 262 2.0 3.0 0.00 0.00 0.00 48 1025.8
20260902041334 84 262 2.0 3.0 0.00 0.00 0.00 48 1025.8
20260902040402 84 262 2.0 4.0 0.00 0.00 0.00 47 1025.7
20260902035356 84 262 2.0 4.0 0.00 0.00 0.00 46 1025.5
20260902034331 84 262 2.0 4.0 0.00 0.00 0.00 46 1025.4
20260902033348 84 262 2.0 4.0 0.00 0.00 0.00 47 1025.3
20260902032342 84 262 2.0 3.0 0.00 0.00 0.00 46 1025.1
20260902031333 84 262 1.0 2.0 0.00 0.00 0.00 46 1024.8
20260902030343 84 262 1.0 2.0 0.00 0.00 0.00 47 1024.7
20260902025334 84 262 0.0 1.0 0.00 0.00 0.00 45 1024.3
20260902024327 85 262 1.0 3.0 0.00 0.00 0.00 44 1024.2
20260902023348 85 262 0.0 2.0 0.00 0.00 0.00 44 1023.9
20260902022337 85 262 1.0 2.0 0.00 0.00 0.00 43 1023.9
20260902021333 86 262 1.0 3.0 0.00 0.00 0.00 43 1023.6
20260902020344 86 262 1.0 6.0 0.00 0.00 0.00 42 1023.6
20260902015333 86 276 2.0 6.0 0.00 0.00 0.00 42 1023.4
20260902014351 87 269 3.0 7.0 0.00 0.00 0.00 40 1023.3
20260902013349 88 273 2.0 6.0 0.00 0.00 0.00 39 1023.4
20260902012340 88 285 4.0 11.0 0.00 0.00 0.00 37 1023.4
20260902011329 89 297 3.0 11.0 0.00 0.00 0.00 36 1023.3
20260902010405 89 311 5.0 12.0 0.00 0.00 0.00 36 1023.2
20260902005332 90 263 5.0 10.0 0.00 0.00 0.00 35 1023.1
20260902004410 90 287 7.0 14.0 0.00 0.00 0.00 36 1023.2
20260902003340 90 331 6.0 12.0 0.00 0.00 0.00 35 1023.1
20260902002333 90 289 7.0 11.0 0.00 0.00 0.00 35 1023.2
20260902001327 91 307 7.0 12.0 0.00 0.00 0.00 35 1023.2
20260902000337 91 301 6.0 11.0 0.00 0.00 0.00 35 1023.2
20260901235328 92 279 5.0 12.0 0.00 0.00 0.00 34 1023.3
20260901234348 91 267 4.0 13.0 0.00 0.00 0.00 34 1023.4
20260901233338 91 223 9.0 15.0 0.00 0.00 0.00 34 1023.5
20260901232326 92 263 6.0 12.0 0.00 0.00 0.00 33 1023.6
20260901231404 92 269 5.0 12.0 0.00 0.00 0.00 32 1023.5
20260901230333 92 306 8.0 13.0 0.00 0.00 0.00 31 1023.8
20260901225349 93 288 6.0 11.0 0.00 0.00 0.00 30 1023.8
20260901224343 92 288 7.0 10.0 0.00 0.00 0.00 31 1023.9
20260901223335 92 237 7.0 11.0 0.00 0.00 0.00 31 1023.8
20260901222327 92 231 4.0 11.0 0.00 0.00 0.00 31 1023.9
20260901221343 93 255 6.0 13.0 0.00 0.00 0.00 30 1024.3
20260901220329 91 254 4.0 9.0 0.00 0.00 0.00 33 1024.3
20260901215343 92 303 5.0 11.0 0.00 0.00 0.00 33 1024.6
20260901214335 92 217 1.0 11.0 0.00 0.00 0.00 31 1024.6
20260901213350 91 217 7.0 12.0 0.00 0.00 0.00 34 1024.8
20260901212338 91 316 8.0 12.0 0.00 0.00 0.00 33 1025.1
20260901211329 92 229 3.0 11.0 0.00 0.00 0.00 33 1025.3
20260901210405 91 248 5.0 10.0 0.00 0.00 0.00 34 1025.3
20260901205359 91 279 2.0 9.0 0.00 0.11 0.00 34 1025.3
20260901204328 90 236 6.0 14.0 0.00 0.11 0.00 34 1025.5
20260901203347 89 212 9.0 14.0 0.00 0.11 0.00 37 1025.7
20260901202344 88 296 6.0 13.0 0.00 0.11 0.00 38 1025.8
20260901201336 89 317 4.0 9.0 0.00 0.11 0.00 38 1025.9
20260901200326 89 319 4.0 10.0 0.00 0.11 0.00 37 1026.0
20260901195341 89 302 6.0 14.0 0.00 0.15 0.00 37 1026.0
20260901194338 89 233 6.0 11.0 0.00 0.15 0.00 37 1026.1
20260901193329 88 226 4.0 10.0 0.00 0.15 0.00 38 1026.4
20260901192345 88 327 2.0 9.0 0.00 0.15 0.00 38 1026.5
20260901191336 88 342 2.0 8.0 0.00 0.15 0.00 38 1026.5
20260901190326 88 340 4.0 9.0 0.00 0.15 0.00 39 1026.6
20260901185342 88 211 4.0 13.0 0.00 0.15 0.00 38 1026.7
20260901184331 88 284 6.0 9.0 0.00 0.15 0.00 40 1026.6
20260901183348 88 246 4.0 8.0 0.00 0.15 0.00 38 1026.7
20260901182342 87 239 2.0 9.0 0.00 0.15 0.00 40 1026.8
20260901181334 88 250 3.0 9.0 0.00 0.15 0.00 39 1026.9
20260901180401 88 223 2.0 5.0 0.00 0.15 0.00 38 1026.9
20260901175327 88 292 1.0 4.0 0.00 0.15 0.00 38 1027.0
20260901174343 88 279 1.0 3.0 0.00 0.15 0.00 38 1027.0
20260901173334 86 279 2.0 5.0 0.00 0.15 0.00 40 1027.1
20260901172350 86 227 1.0 4.0 0.00 0.15 0.00 41 1027.1
20260901171341 84 227 3.0 5.0 0.00 0.15 0.00 44 1027.3
20260901170347 83 227 2.0 8.0 0.00 0.15 0.00 45 1027.1
20260901165335 84 262 3.0 7.0 0.00 0.15 0.00 45 1027.1
20260901164410 83 349 3.0 6.0 0.00 0.15 0.00 48 1027.2
20260901163337 83 46 3.0 4.0 0.00 0.15 0.00 51 1027.1
20260901162325 82 21 2.0 4.0 0.00 0.15 0.00 53 1027.1
20260901161343 81 43 1.0 5.0 0.00 0.15 0.00 56 1027.0
20260901160351 81 5 3.0 5.0 0.00 0.15 0.00 56 1027.0
20260901155339 81 5 1.0 3.0 0.00 0.15 0.00 56 1027.0
20260901154355 81 23 1.0 3.0 0.00 0.15 0.00 57 1027.1
20260901153350 80 130 0.0 4.0 0.00 0.15 0.00 58 1027.1
20260901152338 79 111 1.0 2.0 0.00 0.15 0.00 60 1027.1
20260901151328 79 111 2.0 4.0 0.00 0.15 0.00 61 1027.1
20260901150335 77 19 1.0 2.0 0.00 0.15 0.00 64 1027.1
20260901145350 76 19 2.0 3.0 0.00 0.15 0.00 66 1027.1
20260901144340 76 19 1.0 3.0 0.00 0.15 0.00 70 1027.0
20260901143331 74 19 2.0 4.0 0.00 0.15 0.00 72 1027.0
20260901142346 73 65 3.0 5.0 0.00 0.15 0.00 74 1027.0
20260901141338 73 65 3.0 5.0 0.00 0.15 0.00 76 1026.9
20260901140342 72 76 3.0 6.0 0.00 0.15 0.00 76 1026.8
20260901135351 71 69 3.0 4.0 0.00 0.15 0.00 77 1026.7
20260901134343 70 194 2.0 4.0 0.00 0.15 0.00 79 1026.8
20260901133332 70 194 4.0 8.0 0.00 0.15 0.00 79 1026.7
20260901132347 69 194 5.0 7.0 0.00 0.15 0.00 81 1026.5
20260901131340 69 217 5.0 7.0 0.00 0.15 0.00 81 1026.2
20260901130347 69 194 6.0 9.0 0.00 0.15 0.00 81 1026.1
20260901125337 69 168 6.0 11.0 0.00 0.58 0.00 82 1026.1
20260901124329 69 181 5.0 7.0 0.00 0.58 0.00 85 1026.1
20260901123346 68 192 6.0 8.0 0.00 0.58 0.00 86 1026.0